OK1LPD-5 Weather Reports


Display with metric or nautical units.
time (UTC)temp
F
wind
direction
speed
MPH
gust
MPH
rain 1hr
in
rain 24hr
in
rain mn
in
humidity
%
barometer
mb
20260902053009 50 0 0.0 0.0 0.00 0.00 0.00 99 1015.9
20260902052010 50 0 0.0 0.0 0.00 0.00 0.00 99 1015.8
20260902051009 49 0 0.0 0.0 0.00 0.00 0.00 99 1015.7
20260902050009 49 0 0.0 0.0 0.00 0.00 0.00 99 1015.7
20260902045009 49 0 0.0 0.0 0.00 0.00 0.00 99 1015.5
20260902044009 49 0 0.0 0.0 0.00 0.00 0.00 99 1015.4
20260902043009 50 0 0.0 0.0 0.00 0.00 0.00 99 1015.4
20260902042008 50 0 0.0 0.0 0.00 0.00 0.00 99 1015.4
20260902041008 50 0 0.0 0.0 0.00 0.00 0.00 99 1015.1
20260902040009 50 0 0.0 0.0 0.00 0.00 0.00 99 1015.2
20260902035010 50 0 0.0 0.0 0.00 0.00 0.00 99 1015.3
20260902034009 50 0 0.0 0.0 0.00 0.00 0.00 99 1015.4
20260902033011 50 0 0.0 0.0 0.00 0.00 0.00 99 1015.3
20260902032009 49 0 0.0 0.0 0.00 0.00 0.00 99 1015.5
20260902031009 49 0 0.0 0.0 0.00 0.00 0.00 99 1015.2
20260902030010 49 0 0.0 0.0 0.00 0.00 0.00 99 1015.2
20260902025009 49 0 0.0 0.0 0.00 0.00 0.00 99 1015.4
20260902024009 49 0 0.0 0.0 0.00 0.00 0.00 99 1015.6
20260902023010 49 0 0.0 0.0 0.00 0.00 0.00 99 1015.7
20260902022008 48 0 0.0 0.0 0.00 0.00 0.00 99 1015.6
20260902021009 49 0 0.0 0.0 0.00 0.00 0.00 99 1015.5
20260902020009 49 0 0.0 0.0 0.00 0.00 0.00 99 1015.4
20260902015009 49 0 0.0 0.0 0.00 0.00 0.00 99 1015.4
20260902014008 49 0 0.0 0.0 0.00 0.00 0.00 99 1015.3
20260902013010 49 0 0.0 0.0 0.00 0.00 0.00 99 1015.3
20260902012009 49 0 0.0 0.0 0.00 0.00 0.00 99 1015.2
20260902011009 50 0 0.0 0.0 0.00 0.00 0.00 99 1015.2
20260902010009 50 0 0.0 0.0 0.00 0.00 0.00 99 1015.3
20260902005010 50 0 0.0 0.0 0.00 0.00 0.00 99 1015.2
20260902004009 50 0 0.0 0.0 0.00 0.00 0.00 99 1015.1
20260902003008 50 0 0.0 0.0 0.00 0.00 0.00 99 1015.0
20260902002009 50 0 0.0 0.0 0.00 0.00 0.00 99 1015.0
20260902001009 50 0 0.0 0.0 0.00 0.00 0.00 99 1015.0
20260902000009 50 0 0.0 0.0 0.00 0.00 0.00 99 1015.1
20260901235008 51 0 0.0 0.0 0.00 0.00 0.00 99 1014.9
20260901234008 51 0 0.0 0.0 0.00 0.00 0.00 99 1014.8
20260901233008 51 0 0.0 0.0 0.00 0.00 0.00 99 1014.8
20260901232008 51 0 0.0 0.0 0.00 0.00 0.00 99 1014.7
20260901231008 51 0 0.0 0.0 0.00 0.00 0.00 99 1014.7
20260901230009 51 0 0.0 0.0 0.00 0.00 0.00 99 1014.7
20260901225009 51 0 0.0 0.0 0.00 0.00 0.00 99 1014.6
20260901224008 51 0 0.0 0.0 0.00 0.00 0.00 99 1014.7
20260901223008 52 0 0.0 0.0 0.00 0.00 0.00 99 1014.7
20260901222009 52 0 0.0 0.0 0.00 0.00 0.00 99 1014.6
20260901221009 52 0 0.0 0.0 0.00 0.00 0.00 99 1014.6
20260901220012 52 0 0.0 0.0 0.00 0.00 0.00 99 1014.7
20260901215010 53 0 0.0 0.0 0.00 0.00 0.00 99 1014.5
20260901214010 53 0 0.0 0.0 0.00 0.00 0.00 99 1014.5
20260901213010 53 0 0.0 0.0 0.00 0.00 0.00 99 1014.3
20260901212010 53 0 0.0 0.0 0.00 0.00 0.00 99 1014.2
20260901211010 53 0 0.0 0.0 0.00 0.00 0.00 99 1014.3
20260901210010 54 0 0.0 0.0 0.00 0.00 0.00 99 1014.0
20260901205010 54 0 0.0 0.0 0.00 0.00 0.00 99 1013.9
20260901204010 54 0 0.0 0.0 0.00 0.00 0.00 99 1013.8
20260901203010 55 0 0.0 0.0 0.00 0.00 0.00 99 1013.6
20260901202009 55 0 0.0 0.0 0.00 0.00 0.00 99 1013.6
20260901201010 55 0 0.0 0.0 0.00 0.00 0.00 99 1013.6
20260901200010 56 0 0.0 0.0 0.00 0.00 0.00 99 1013.5
20260901195009 56 0 0.0 0.0 0.00 0.00 0.00 99 1013.3
20260901194009 57 0 0.0 0.0 0.00 0.00 0.00 99 1013.2
20260901193010 57 0 0.0 0.0 0.00 0.00 0.00 99 1013.0
20260901192011 58 0 0.0 0.0 0.00 0.00 0.00 99 1013.0
20260901191010 58 0 0.0 0.0 0.00 0.00 0.00 99 1012.9
20260901190009 59 0 0.0 0.0 0.00 0.00 0.00 98 1012.8
20260901185009 59 0 0.0 0.0 0.00 0.00 0.00 96 1012.6
20260901184010 60 0 0.0 0.0 0.00 0.00 0.00 95 1012.5
20260901183009 60 0 0.0 0.0 0.00 0.00 0.00 94 1012.2
20260901182009 61 181 0.0 1.0 0.00 0.00 0.00 92 1012.0
20260901181011 62 0 0.0 0.0 0.00 0.00 0.00 90 1012.0
20260901180009 63 0 0.0 0.0 0.00 0.00 0.00 89 1011.7
20260901175009 64 0 0.0 0.0 0.00 0.00 0.00 87 1011.7
20260901174009 65 0 0.0 0.0 0.00 0.00 0.00 84 1011.5
20260901173010 66 0 0.0 0.0 0.00 0.00 0.00 81 1011.5
20260901172009 67 0 0.0 0.0 0.00 0.00 0.00 78 1011.3
20260901171009 69 0 0.0 0.0 0.00 0.00 0.00 75 1011.3
20260901170010 69 225 0.0 2.0 0.00 0.00 0.00 72 1011.2
20260901165010 70 12 0.0 3.0 0.00 0.00 0.00 70 1011.2
20260901164009 71 343 0.0 4.0 0.00 0.00 0.00 69 1011.2
20260901163010 71 345 0.0 4.0 0.00 0.00 0.00 70 1011.1
20260901162011 71 309 1.0 3.0 0.00 0.00 0.00 70 1011.0
20260901161009 70 343 0.0 2.0 0.00 0.00 0.00 72 1011.1
20260901160011 71 323 0.0 2.0 0.00 0.00 0.00 71 1011.0
20260901155009 71 115 0.0 3.0 0.00 0.00 0.00 70 1011.0
20260901154009 72 340 2.0 6.0 0.00 0.00 0.00 69 1011.1
20260901153009 72 323 0.0 6.0 0.00 0.00 0.00 67 1011.0
20260901152009 73 330 1.0 8.0 0.00 0.00 0.00 66 1010.8
20260901151009 74 358 1.0 5.0 0.00 0.00 0.00 65 1010.9
20260901150009 73 357 2.0 8.0 0.00 0.00 0.00 65 1011.0
20260901145009 72 344 0.0 3.0 0.00 0.00 0.00 67 1010.9
20260901144009 72 339 1.0 4.0 0.00 0.00 0.00 67 1011.0
20260901143009 73 2 1.0 4.0 0.00 0.00 0.00 67 1011.0
20260901142009 74 27 0.0 4.0 0.00 0.00 0.00 66 1011.0
20260901141010 73 95 0.0 3.0 0.00 0.00 0.00 70 1011.1
20260901140010 72 17 0.0 3.0 0.00 0.00 0.00 68 1011.1
20260901135008 72 326 1.0 6.0 0.00 0.00 0.00 67 1011.1
20260901134009 72 355 0.0 6.0 0.00 0.00 0.00 69 1011.2
20260901133009 72 337 2.0 4.0 0.00 0.00 0.00 67 1011.2
20260901132008 74 329 0.0 7.0 0.00 0.00 0.00 66 1011.2
20260901131009 73 354 2.0 7.0 0.00 0.00 0.00 65 1011.2
20260901130009 72 11 4.0 7.0 0.00 0.00 0.00 67 1011.2
20260901125009 72 333 1.0 8.0 0.00 0.00 0.00 69 1011.5
20260901124009 73 2 0.0 9.0 0.00 0.00 0.00 67 1011.7
20260901123010 75 358 4.0 9.0 0.00 0.00 0.00 64 1011.9
20260901122009 76 298 2.0 8.0 0.00 0.00 0.00 64 1012.0
20260901121009 76 288 1.0 4.0 0.00 0.00 0.00 67 1012.0
20260901120010 73 164 2.0 8.0 0.00 0.00 0.00 71 1012.3
20260901115009 72 150 1.0 6.0 0.00 0.00 0.00 74 1012.3
20260901114009 71 58 0.0 5.0 0.00 0.00 0.00 76 1012.3
20260901113009 71 331 2.0 5.0 0.00 0.00 0.00 77 1012.5
20260901112009 71 350 2.0 8.0 0.00 0.00 0.00 75 1012.5
20260901111009 71 41 0.0 3.0 0.00 0.00 0.00 79 1012.4
20260901110009 70 1 1.0 5.0 0.00 0.00 0.00 80 1012.5
20260901105009 69 298 0.0 8.0 0.00 0.00 0.00 81 1012.7
20260901104009 69 339 1.0 11.0 0.00 0.00 0.00 81 1012.7
20260901103009 70 48 2.0 6.0 0.00 0.00 0.00 78 1012.8
20260901102009 70 132 2.0 8.0 0.00 0.00 0.00 80 1012.8
20260901101009 69 184 2.0 9.0 0.00 0.00 0.00 81 1012.9
20260901100010 70 55 2.0 8.0 0.00 0.00 0.00 82 1013.1
20260901095009 69 66 0.0 8.0 0.00 0.00 0.00 84 1013.2
20260901094010 70 9 1.0 8.0 0.00 0.00 0.00 81 1013.3
20260901093010 71 285 1.0 11.0 0.00 0.00 0.00 80 1013.5
20260901092011 71 342 2.0 8.0 0.00 0.00 0.00 81 1013.8
20260901091010 70 141 1.0 7.0 0.00 0.00 0.00 85 1013.9
20260901090010 71 316 1.0 8.0 0.00 0.00 0.00 83 1014.1
20260901085009 69 277 2.0 8.0 0.00 0.00 0.00 88 1014.2
20260901084009 69 354 2.0 8.0 0.00 0.00 0.00 87 1014.4
20260901083010 69 329 4.0 10.0 0.00 0.00 0.00 87 1014.5
20260901082010 70 207 2.0 7.0 0.00 0.00 0.00 89 1014.6
20260901081009 68 173 2.0 5.0 0.00 0.00 0.00 94 1014.7
20260901080011 66 358 2.0 8.0 0.00 0.00 0.00 97 1014.5
20260901075010 65 37 2.0 5.0 0.00 0.00 0.00 99 1014.5
20260901074009 65 7 0.0 5.0 0.00 0.00 0.00 99 1014.5
20260901073010 65 306 1.0 8.0 0.00 0.00 0.00 99 1014.1
20260901072009 64 309 2.0 6.0 0.00 0.00 0.00 99 1014.3
20260901071010 63 351 1.0 5.0 0.00 0.00 0.00 99 1014.4
20260901070011 63 357 2.0 8.0 0.00 0.00 0.00 99 1014.3
20260901065009 62 84 0.0 6.0 0.00 0.00 0.00 99 1014.4
20260901064011 62 7 0.0 4.0 0.00 0.00 0.00 99 1014.4
20260901063009 61 1 0.0 8.0 0.00 0.01 0.00 99 1014.4
20260901062009 60 63 1.0 4.0 0.00 0.02 0.00 99 1014.2
20260901061009 59 51 0.0 3.0 0.00 0.14 0.00 99 1014.1
20260901060010 58 18 1.0 4.0 0.00 0.24 0.00 99 1014.0
20260901055010 57 36 0.0 2.0 0.00 0.24 0.00 99 1014.0
20260901054009 55 66 0.0 2.0 0.00 0.24 0.00 99 1013.9